Location: Grisols
(45.0093°N, 3.1167°E)
Time: 09:03:43
(UTC+00:00)

STARLINK-29 - Pass Details

Date: 21 October 2019
Orbit: 437 x 449 km, 53.0° (Epoch: 13 November)

Event Time Altitude Azimuth Distance (km) Brightness Sun altitude
Rises 18:58:27 0° 300° (WNW) 2,434 8.1 -22.8°
Reaches altitude 10° 19:00:36 10° 296° (WNW) 1,563 6.9 -23.2°
Enters shadow 19:03:30 47° 253° (WSW) 595 4.1 -23.7°
